Regional Weather Roundup
Issued by NWS

Home | Current Version | Previous Version | Graphics & Text | Print | Product List | Glossary On
Versions: 1 2 3 4 5 6 7 8 9 10 11 12 13 14 15 16 17 18 19 20 21 22 23 24 25 26 27 28 29 30 31 32 33 34 35 36 37 38 39 40 41 42 43 44 45 46 47 48 49 50
000
ASUS44 KMEG 221610
RWRTN
TENNESSEE HOURLY STATE WEATHER ROUNDUP
NATIONAL WEATHER SERVICE MEMPHIS TN
1100 AM CDT TUE APR 22 2014

TNZ002-004-019-021-049-052-054-088>092-221700-
WEST TENNESSEE

CITY           SKY/WX    TMP DP  RH WIND       PRES   REMARKS
MEMPHIS INTL   CLOUDY    68  61  78 N10       29.96R
NWS MEMPHIS      N/A     67 N/A N/A MISG        N/A
JACKSON        CLOUDY    68  60  75 N9        29.95R
DYERSBURG      MOSUNNY   66  54  63 N10       29.97R
UNION CITY     MOSUNNY   68  57  68 N12       29.94R
PARIS          PTSUNNY   66  57  72 N9        29.94S
LEXINGTON      CLOUDY    64  61  88 CALM      29.93S
$$

TNZ008-025-027-028-033-062-065-066-221700-
NORTH MIDDLE TENNESSEE

CITY           SKY/WX    TMP DP  RH WIND       PRES   REMARKS
NASHVILLE      LGT RAIN  65  61  87 CALM      29.92R
DICKSON          N/A     63  61  94 NW6       29.92R
CLARKSVILLE    PTSUNNY   69  60  73 N14       29.91R
SMYRNA         CLOUDY    65  62  90 NW6       29.92R
MURFREESBORO   CLOUDY    64  61  90 W6        29.91R
COOKEVILLE     CLOUDY    64  61  88 CALM      29.90S
LIVINGSTON     CLOUDY    60  59  97 W6        29.91R
GALLATIN       CLOUDY    66  62  87 W7        29.91R
CROSSVILLE     CLOUDY    59  57  93 W7        29.92S FOG
$$

TNZ061-075-076-078-094-096-097-221700-
SOUTH MIDDLE TENNESSEE

CITY           SKY/WX    TMP DP  RH WIND       PRES   REMARKS
LEWISBURG      CLOUDY    66  61  84 NW5       29.92R
FAYETTEVILLE   PTSUNNY   64  59  84 W5        29.93S
TULLAHOMA      PTSUNNY   68  59  73 NW7       29.93S
WINCHESTER     PTSUNNY   66  61  82 W5        29.93S
MCMINNVILLE    CLOUDY    64  64 100 SW6       29.92S
COLUMBIA       CLOUDY    64  64 100 NW6       29.92R
SHELBYVILLE    CLOUDY    64  63  94 NW6       29.93R
$$

TNZ017-018-042-046-047-221700-
NORTHEAST TENNESSEE

CITY           SKY/WX    TMP DP  RH WIND       PRES   REMARKS
TRI CITIES     LGT RAIN  63  54  72 NW8       29.88R
ELIZABETHTON   CLOUDY    63  52  67 W8        29.87F
$$

TNZ012-013-036-069-073-074-221700-
CENTRAL EAST TENNESSEE

CITY           SKY/WX    TMP DP  RH WIND       PRES   REMARKS
KNOXVILLE      RAIN      61  59  93 SW9       29.89S FOG
OAK RIDGE      CLOUDY    64  58  80 SW6       29.90S
$$

TNZ083-085-099-221700-
SOUTHEAST TENNESSEE

CITY           SKY/WX    TMP DP  RH WIND       PRES   REMARKS
CHATTANOOGA    DRIZZLE   67  59  75 SW5       29.92R
$$

SKY/WX REPORTED AS FAIR MEANS FEW OR NO CLOUDS BELOW
12 THOUSAND FEET.




USA.gov is the U.S. government's official web portal to all federal, state and local government web resources and services.